Pagrindinis puslapis
METAR-TAF:

METAR-TAF

Oro uostai :

Hobart, Oklahoma, Jungtinės Amerikos Valstijos

platuma: 34-59-22N, ilguma: 099-03-09W, Aukštis: 476 m

Dabartinis oras

Ataskaita buvo paskelbta 12 minutes, ne 04:53 UTC
Vėjas 10 kt iš Pietų
Temperatūra 29°C
Drėgmė 43%
Slėgis 1014 hPa
Matomumas: 16.1 km
Giedras dangus

METAR: KHBR 160453Z AUTO 17010KT 10SM CLR 29/15 A2994 RMK AO2 SLP113 T02940150

Laikas: 00:05 (05:05 UTC)


TAF: trūkstamas

Orai ataskaitas ir orų prognozės (METAR, TAF).

turimą stotys yra geltonos ir raudonos taškus žemėlapyje.

Perkelti pele per norėdami pamatyti stoties vardą.

Tada spustelėkite, norėdami matyti oro stebėjimo ir prognozės.

Norėdami pakeisti žemėlapį: spustelėkite ant žalios mygtukų su juodo kryžiaus žemyn,; žalią mygtuką su brūkšneliu, jei norite nutolinti; arba žalių rodyklių gretimoms žemėlapius.


METAR-TAF: